Location: Highridge
(54.0333°N, 114.1333°W)
Time: 06:43:27
(UTC+00:00)

SO-50 - Pass Details

Date: 09 December 2023
Orbit: 608 x 660 km, 64.6° (Epoch: 02 March)

Event Time Altitude Azimuth Distance (km) Brightness Sun altitude
Exits shadow 11:16:33 13° 44° (NE) 1,877 ? -37.5°
Drops below altitude 10° 11:16:59 10° 44° (NE) 2,044 ? -37.5°
Sets 11:19:17 0° 47° (NE) 2,947 ? -37.1°
